Simultaneous Nadir Overpasses (SNOs) Predictions

Prediction of SNOs between GOES-15 and METOP-C Satellite Orbit:

Table of predicted SNOs for the next 14.0 days since TLE Epoch: 3/18/2023
Index Date Time (GOES-15) GOES-15 Lat,Lon METOP-C Lat,Lon Distance(km) Time Diff (sec)
1 03/18/2023 06:02:31 0.09,-127.69 0.09,-127.67 2.69 80
2 03/20/2023 18:00:42 -0.09,-127.82 -0.22,-127.24 66.69 80
3 03/22/2023 06:17:00 0.10,-127.85 -0.77,-131.83 452.75 80
4 03/23/2023 05:59:00 0.09,-127.89 0.35,-126.83 121.38 80
5 03/24/2023 18:15:11 -0.10,-127.98 0.63,-131.40 388.92 80
6 03/25/2023 17:57:10 -0.10,-128.01 -0.43,-126.39 184.68 80
7 03/27/2023 06:13:28 0.12,-128.04 -0.53,-130.99 335.83 80
8 03/28/2023 05:55:28 0.11,-128.07 0.60,-125.99 237.58 80
9 03/29/2023 18:11:38 -0.13,-128.15 0.43,-130.54 273.59 80
10 03/30/2023 17:53:37 -0.12,-128.18 -0.70,-125.55 299.49 80
